星链-30321 (STARLINK-30321 )

导读

STARLINK-30321是美国SpaceX公司星链(Starlink)星座项目中的低轨通信卫星,于2023年8月22日发射升空。作为全球规模最大的卫星互联网星座组成部分,它承担着为偏远地区提供高速低延迟宽带互联网服务的使命,搭载先进通信载荷与自主避撞系统,退役后会主动离轨坠入大气层销毁,是星链全球网络搭建的重要一环。

Basic Information
目录编号:
57679
目录名称:
STARLINK-30321
国际标识:
2023-124S
轨道中心:
EARTH
卫星名称:
星链-30321
卫星全名:
星链-30321 (STARLINK-30321 )
卫星状态:
在轨 (已飞行1116 天)
发射日期:
2023-08-22 UTC
国别 :
美国 (US)
星等 :
--
This satellite is enrolled in the Space Conjunction Data Service (SCDS) and the current flight risk assessment level is: High Risk
Orbit Information
数据来源 国际轨道数据 AOE轨道数据
星历时间 2026-09-11T02:03:05+0800
21小时前
查看轨道信息
2026-09-06T09:00:00+0800
5天前
查看轨道信息
半长轴 6840.837km 6840.826km
偏心率 0.0001352 0.0001028
轨道倾角 53.160° 53.159°
近地点辐角 128.967° 89.318°
升交点赤经 64.966° 86.989°
平近点角 231.145° 156.536°
近地点 461.775km 461.985km
远地点 463.625km 463.393km
周期 93.848分钟 93.847分钟
每日圈数 15.344011 15.344049
Detailed Information
固有亮度:
5
最大亮度:
0.3
卫星平台:
Starlink v2.0 mini
覆盖范围:
全球
运营商:
太空探索技术公司
运营商所在国:
美国
制造商(研发单位):
太空探索技术公司
制造商所在国:
美国
使用方式:
暂无
Satellite Introduction
星链(Starlink)计划是由太空探索技术公司(SpaceX)提出的一个巨型低轨卫星互联网星座项目,计划在2019年至2024年间在太空搭建由约1.2万颗卫星组成的“星链”网络,其中1584颗将部署在地球上空550千米处的近地轨道,并从2020年开始工作。该卫星仍在工作。
2D Orbit Map
3D Orbit Map
Orbit Altitude Analysis Chart
Orbit Inclination Analysis Chart
Orbit Comprehensive Analysis Chart
View Comprehensive Chart
Conjunction Data List
Event ID Objects TCA Miss Dist (km) Collision Risk Probability Collision Risk Index (CRI) Action
CDM_260912-144005-767906-804821
2026-09-12T
14:40:34+0000
0.331 km
远距离
4.011586E-4 高风险 0.87
CDM_260911-234905-767906-804822
2026-09-11T
23:49:34+0000
1.534 km
极远距离
5.416515E-6 低风险 0.5
CDM_260912-170105-767906-805222
2026-09-12T
17:01:37+0000
1.615 km
极远距离
4.601364E-6 低风险 0.48
CDM_260913-131505-767906-510021
2026-09-13T
13:15:51+0000
1.804 km
极远距离
3.347246E-6 低风险 0.45
CDM_260913-061805-767906-805222
2026-09-13T
06:18:49+0000
1.875 km
极远距离
2.966898E-6 低风险 0.44
CDM_260913-075205-767906-805221
2026-09-13T
07:52:36+0000
2.233 km
极远距离
1.934902E-6 低风险 0.41
CDM_260912-183505-767906-805221
2026-09-12T
18:35:24+0000
2.411 km
极远距离
1.657142E-6 低风险 0.39
CDM_260912-012305-767906-804821
2026-09-12T
01:23:22+0000
2.764 km
极远距离
1.323482E-6 低风险 0.37
CDM_260913-114205-767906-510021
2026-09-13T
11:42:04+0000
2.831 km
极远距离
1.291859E-6 低风险 0.37
Miss Distance Evolution Trend with All Objects
Collision Probability Evolution Trend with All Objects